Hourly Weather Gogolewo

Today, 17 May, Monday

Time Temperature Precipitation Wind Pressure Humidity
00:00 +8°C° 0 mm 2 mps 742 mmHg 94%
01:00 +8°C° 0 mm 2 mps 742 mmHg 94%
02:00 +8°C° 0 mm 2 mps 742 mmHg 94%
03:00 +8°C° 0 mm 2 mps 742 mmHg 93%
04:00 +7°C° 0 mm 2 mps 742 mmHg 93%
05:00 +9°C° 0 mm 2 mps 742 mmHg 88%
06:00 +11°C° 0 mm 3 mps 743 mmHg 83%
07:00 +12°C° 0 mm 3 mps 743 mmHg 79%
08:00 +14°C° 0.2 mm 3 mps 743 mmHg 72%
09:00 +16°C° 0.2 mm 3 mps 743 mmHg 66%
10:00 +18°C° 0.2 mm 3 mps 743 mmHg 60%
11:00 +18°C° 0.4 mm 3 mps 743 mmHg 58%
12:00 +18°C° 0.4 mm 3 mps 743 mmHg 56%
13:00 +19°C° 0.4 mm 2 mps 743 mmHg 54%
14:00 +18°C° 0.2 mm 2 mps 743 mmHg 56%
15:00 +18°C° 0.2 mm 2 mps 743 mmHg 58%
16:00 +19°C° 0.2 mm 1 mps 743 mmHg 60%
17:00 +18°C° 0.3 mm 1 mps 743 mmHg 68%
18:00 +15°C° 0.3 mm 1 mps 743 mmHg 75%
19:00 +14°C° 0.3 mm 1 mps 743 mmHg 83%
20:00 +13°C° 0.1 mm 1 mps 744 mmHg 85%
21:00 +13°C° 0.1 mm 1 mps 744 mmHg 86%
22:00 +12°C° 0.1 mm 1 mps 744 mmHg 88%
23:00 +12°C° 0.1 mm 1 mps 744 mmHg 89%

Tomorrow, 18 May, Tuesday

Time Temperature Precipitation Wind Pressure Humidity
00:00 +12°C° 0.1 mm 1 mps 744 mmHg 90%
01:00 +11°C° 0.1 mm 1 mps 744 mmHg 91%
02:00 +11°C° 0.4 mm 1 mps 744 mmHg 92%
03:00 +11°C° 0.4 mm 1 mps 744 mmHg 94%
04:00 +11°C° 0.4 mm 1 mps 744 mmHg 95%
05:00 +11°C° 0.8 mm 1 mps 745 mmHg 94%
06:00 +11°C° 0.8 mm 1 mps 745 mmHg 93%
07:00 +12°C° 0.8 mm 1 mps 745 mmHg 92%
08:00 +12°C° 0.1 mm 1 mps 745 mmHg 88%
09:00 +13°C° 0.1 mm 2 mps 745 mmHg 83%
10:00 +14°C° 0.1 mm 2 mps 746 mmHg 78%
11:00 +14°C° 0.2 mm 2 mps 746 mmHg 75%
12:00 +14°C° 0.2 mm 3 mps 746 mmHg 72%
13:00 +14°C° 0.2 mm 3 mps 746 mmHg 68%
14:00 +14°C° 0.1 mm 3 mps 746 mmHg 66%
15:00 +14°C° 0.1 mm 3 mps 746 mmHg 65%
16:00 +14°C° 0.1 mm 3 mps 747 mmHg 63%
17:00 +13°C° 0 mm 3 mps 747 mmHg 68%
18:00 +13°C° 0 mm 2 mps 747 mmHg 73%
19:00 +12°C° 0 mm 2 mps 747 mmHg 79%
20:00 +10°C° 0 mm 2 mps 747 mmHg 83%
21:00 +9°C° 0 mm 2 mps 748 mmHg 87%
22:00 +8°C° 0 mm 2 mps 748 mmHg 92%
23:00 +8°C° 0 mm 2 mps 748 mmHg 93%

Day after tomorrow, 19 May, Wednesday

Time Temperature Precipitation Wind Pressure Humidity
00:00 +8°C° 0 mm 2 mps 748 mmHg 94%
01:00 +7°C° 0 mm 2 mps 748 mmHg 96%
02:00 +7°C° 0 mm 2 mps 748 mmHg 95%
03:00 +7°C° 0 mm 3 mps 748 mmHg 95%
04:00 +7°C° 0 mm 3 mps 748 mmHg 95%
05:00 +9°C° 0 mm 3 mps 748 mmHg 88%
06:00 +10°C° 0 mm 3 mps 749 mmHg 81%
07:00 +11°C° 0 mm 4 mps 749 mmHg 74%
08:00 +12°C° 0 mm 4 mps 749 mmHg 69%
09:00 +13°C° 0 mm 5 mps 749 mmHg 65%
10:00 +14°C° 0 mm 5 mps 749 mmHg 60%
11:00 +14°C° 0 mm 5 mps 749 mmHg 59%
12:00 +14°C° 0 mm 5 mps 750 mmHg 58%
13:00 +14°C° 0 mm 5 mps 750 mmHg 57%
14:00 +14°C° 0 mm 5 mps 750 mmHg 58%
15:00 +13°C° 0 mm 5 mps 750 mmHg 59%
16:00 +13°C° 0 mm 5 mps 750 mmHg 60%
17:00 +12°C° 0 mm 4 mps 751 mmHg 65%
18:00 +11°C° 0 mm 4 mps 751 mmHg 69%
19:00 +10°C° 0 mm 3 mps 751 mmHg 73%
20:00 +9°C° 0 mm 3 mps 751 mmHg 78%
21:00 +8°C° 0 mm 3 mps 751 mmHg 83%
22:00 +7°C° 0 mm 3 mps 751 mmHg 88%
23:00 +5°C° 0 mm 3 mps 752 mmHg 89%

20 May, Thursday

Time Temperature Precipitation Wind Pressure Humidity
00:00 +5°C° 0 mm 3 mps 752 mmHg 90%
01:00 +5°C° 0 mm 3 mps 752 mmHg 91%
02:00 +5°C° 0 mm 3 mps 752 mmHg 91%
03:00 +4°C° 0 mm 3 mps 752 mmHg 92%
04:00 +4°C° 0 mm 3 mps 752 mmHg 93%
05:00 +7°C° 0 mm 3 mps 752 mmHg 86%
06:00 +9°C° 0 mm 3 mps 752 mmHg 79%
07:00 +11°C° 0 mm 4 mps 752 mmHg 72%
08:00 +12°C° 0 mm 4 mps 752 mmHg 68%
09:00 +13°C° 0 mm 4 mps 753 mmHg 64%
10:00 +14°C° 0 mm 5 mps 753 mmHg 59%
11:00 +14°C° 0 mm 5 mps 753 mmHg 60%
12:00 +14°C° 0 mm 6 mps 753 mmHg 61%
13:00 +13°C° 0 mm 6 mps 753 mmHg 61%
14:00 +12°C° 0 mm 7 mps 753 mmHg 60%
15:00 +11°C° 0 mm 7 mps 753 mmHg 58%
16:00 +11°C° 0 mm 7 mps 753 mmHg 56%
17:00 +10°C° 0 mm 7 mps 753 mmHg 62%
18:00 +9°C° 0 mm 6 mps 753 mmHg 68%
19:00 +8°C° 0 mm 5 mps 753 mmHg 74%
20:00 +7°C° 0 mm 5 mps 753 mmHg 77%
21:00 +6°C° 0 mm 5 mps 753 mmHg 80%
22:00 +6°C° 0 mm 5 mps 753 mmHg 83%
23:00 +6°C° 0 mm 5 mps 753 mmHg 84%

21 May, Friday

Time Temperature Precipitation Wind Pressure Humidity
00:00 +5°C° 0 mm 5 mps 753 mmHg 84%
01:00 +5°C° 0 mm 5 mps 752 mmHg 85%
02:00 +5°C° 0 mm 5 mps 752 mmHg 86%
03:00 +5°C° 0 mm 5 mps 752 mmHg 87%
04:00 +3°C° 0 mm 5 mps 752 mmHg 88%
05:00 +4°C° 0 mm 6 mps 752 mmHg 82%
06:00 +5°C° 0 mm 6 mps 752 mmHg 77%
07:00 +6°C° 0 mm 7 mps 752 mmHg 71%
08:00 +8°C° 0 mm 7 mps 752 mmHg 65%
09:00 +8°C° 0 mm 7 mps 752 mmHg 59%
10:00 +9°C° 0 mm 7 mps 752 mmHg 53%
11:00 +10°C° 0 mm 7 mps 752 mmHg 52%
12:00 +10°C° 0 mm 7 mps 751 mmHg 52%
13:00 +11°C° 0 mm 7 mps 751 mmHg 52%
14:00 +11°C° 0 mm 7 mps 751 mmHg 54%
15:00 +11°C° 0 mm 7 mps 751 mmHg 57%
16:00 +11°C° 0 mm 6 mps 751 mmHg 59%
17:00 +10°C° 0 mm 5 mps 751 mmHg 65%
18:00 +11°C° 0 mm 4 mps 750 mmHg 70%
19:00 +10°C° 0 mm 2 mps 750 mmHg 75%
20:00 +9°C° 0 mm 2 mps 750 mmHg 78%
21:00 +8°C° 0 mm 2 mps 750 mmHg 81%
22:00 +8°C° 0 mm 2 mps 750 mmHg 84%
23:00 +8°C° 0 mm 2 mps 749 mmHg 83%

22 May, Saturday

Time Temperature Precipitation Wind Pressure Humidity
00:00 +8°C° 0 mm 2 mps 749 mmHg 83%
01:00 +8°C° 0 mm 2 mps 749 mmHg 83%
02:00 +8°C° 0 mm 2 mps 748 mmHg 82%
03:00 +8°C° 0 mm 2 mps 748 mmHg 82%
04:00 +8°C° 0 mm 2 mps 748 mmHg 81%
05:00 +9°C° 0 mm 3 mps 747 mmHg 78%
06:00 +11°C° 0 mm 3 mps 747 mmHg 75%
07:00 +12°C° 0 mm 4 mps 747 mmHg 72%
08:00 +13°C° 0 mm 5 mps 747 mmHg 68%
09:00 +14°C° 0 mm 5 mps 747 mmHg 64%
10:00 +16°C° 0 mm 6 mps 746 mmHg 60%
11:00 +15°C° 0.3 mm 5 mps 746 mmHg 66%
12:00 +15°C° 0.3 mm 5 mps 746 mmHg 73%
13:00 +14°C° 0.3 mm 5 mps 746 mmHg 79%
14:00 +14°C° 0.4 mm 5 mps 746 mmHg 78%
15:00 +14°C° 0.4 mm 4 mps 747 mmHg 77%
16:00 +14°C° 0.4 mm 4 mps 747 mmHg 77%
17:00 +13°C° 0.8 mm 3 mps 747 mmHg 82%
18:00 +13°C° 0.8 mm 2 mps 747 mmHg 87%
19:00 +12°C° 0.8 mm 1 mps 747 mmHg 92%
20:00 +11°C° 0.1 mm 1 mps 748 mmHg 93%
21:00 +10°C° 0.1 mm 1 mps 748 mmHg 93%
22:00 +10°C° 0.1 mm 1 mps 748 mmHg 94%
23:00 +9°C° 0 mm 1 mps 748 mmHg 93%
Show more